Location: Hambden
(41.6042°N, 81.1457°W)
Time: 14:00:47
(UTC+00:00)

Daily predictions for brighter satellites

Satellite Brightness Start Highest point End
(mag) Time Altitude Azimuth Time Altitude Azimuth Time Altitude Azimuth
Cosmos 1805 Rocket 4.1 22:20:47 10° N 22:24:56 37° ENE 22:29:02 10° SE
Radarsat Rocket 4.1 22:20:10 10° SSE 22:26:04 69° ENE 22:32:34 10° NNW
Cosmos 2219 Rocket 3.4 22:21:08 10° SW 22:26:26 40° WNW 22:31:45 10° N
Cosmos 405 4.0 22:23:09 10° SSW 22:26:31 48° WNW 22:29:55 10° N
YAOGAN 6 2.6 22:23:18 10° SSE 22:26:55 62° ENE 22:30:30 10° N
Cosmos 389 Rocket 3.5 22:25:07 10° SSE 22:28:00 26° E 22:30:54 10° NE
USA 281 4.3 22:28:13 10° E 22:32:59 22° NE 22:37:46 10° N
MOS 1-B 4.5 22:27:51 10° SSE 22:33:39 87° WSW 22:39:30 10° NNW
CZ-4B R/B 3.2 22:29:37 10° SSE 22:34:53 61° ENE 22:40:06 10° N
H-2A R/B 3.7 22:32:13 10° S 22:35:56 52° W 22:39:44 10° NNW
ISS -2.8 22:33:14 10° W 22:36:26 40° NNW 22:39:39 10° NE
Landsat 5 3.9 22:32:03 10° N 22:36:27 76° WNW 22:40:55 10° SSW
Cosmos 1939 Rocket 4.2 22:33:53 10° ESE 22:36:32 18° ENE 22:39:13 10° NNE
Cosmos 2237 Rocket 2.2 22:32:01 10° SSW 22:37:38 85° ESE 22:43:18 10° NNE
OE (NEXTSAT) 4.5 22:35:03 10° SW 22:38:27 66° SSE 22:41:40 11° ENE
CORIOLIS 4.2 22:40:56 10° SSE 22:46:15 64° ENE 22:51:38 10° N
CREW DRAGON DEMO-1 DEB 4.3 22:46:18 10° NNW 22:48:40 21° NNE 22:50:09 15° ENE
Nadezhda 1 Rocket 4.2 22:42:23 10° S 22:48:43 80° W 22:55:08 10° N
FengYun 1-2 T 4.3 22:45:01 10° SSE 22:50:25 55° ENE 22:55:48 10° N
Cosmos 405 Rocket 3.5 22:46:34 10° NNW 22:50:25 58° W 22:54:20 10° S
H-2A R/B 2.3 22:46:20 10° N 22:50:29 69° WNW 22:54:43 10° SSW
CZ-4B R/B 1.8 22:47:41 10° NNE 22:50:35 36° E 22:53:29 10° SSE
Cosmos 2369 Rocket 3.8 22:49:18 10° NNE 22:52:05 14° NE 22:53:22 13° ENE
Cosmos 1356 3.8 22:49:20 10° N 22:52:35 39° ENE 22:55:49 10° SSE
Abrixas rocket 2.7 22:52:09 10° WNW 22:54:50 48° SSW 22:57:30 10° SE
SKYMED 2 4.4 22:51:53 10° NE 22:55:44 30° E 22:59:33 10° SSE
Cosmos 1980 4.1 22:50:32 10° SW 22:56:10 65° WNW 23:01:50 10° NNE
Cosmos 1633 Rocket 3.6 22:56:56 10° N 23:00:57 34° ENE 23:04:54 10° SE
ADEOS Rocket 4.5 22:55:44 10° N 23:03:05 51° WNW 23:10:29 10° SW
X-37B 3.1 23:02:58 10° SSE 23:03:44 11° SE 23:04:30 10° SE
Cosmos 1867 3.5 22:59:08 10° SSW 23:04:32 75° ESE 23:09:40 12° NE
Cosmos 1606 2.7 23:04:03 10° S 23:07:56 85° W 23:11:51 10° N
Cosmos 962 Rocket 4.4 23:01:50 10° N 23:08:09 78° E 23:14:21 10° S
Cosmos 1933 3.4 23:06:42 10° S 23:10:37 54° E 23:14:36 10° NNE
SAR-Lupe-4 4.1 23:08:16 17° NE 23:10:39 37° E 23:13:59 10° SSE
CZ-2C R/B 3.7 23:08:56 10° SE 23:13:16 29° ENE 23:17:28 10° N
SMAP 3.7 23:08:45 10° S 23:13:19 58° W 23:17:55 10° NNW
Cosmos 1818 4.2 23:08:05 10° NW 23:13:29 60° WSW 23:18:48 10° SSE
Cosmos 1943 Rocket 2.9 23:11:46 10° N 23:16:34 29° NE 23:19:12 20° E
USA 215 3.3 23:12:52 15° NE 23:18:34 90° WNW 23:25:07 10° SW
Cosmos 2341 Rocket 4.0 23:12:18 10° N 23:18:38 84° E 23:24:58 10° S
Cosmos 1125 Rocket 4.2 23:14:57 10° NNW 23:20:03 57° WSW 23:25:08 10° S
Cosmos 2297 3.8 23:15:15 10° NNW 23:20:49 52° ENE 23:26:21 10° SE
Cosmos 1782 3.3 23:21:02 10° SSE 23:24:37 35° E 23:25:18 32° ENE
SL-16 R/B 2.1 23:20:47 10° SSW 23:26:25 76° ESE 23:31:22 14° NNE
Meteor 1-4 Rocket 3.1 23:23:09 10° SSE 23:26:26 35° E 23:26:26 35° E
SAR-Lupe-1 4.0 23:25:47 24° NNE 23:27:48 59° ESE 23:31:20 10° S
YAOGAN 1 3.4 23:30:24 29° NE 23:30:24 29° NE 23:33:23 10° N
BREEZE-M DEB (TANK) 4.2 23:18:33 10° SW 23:29:34 46° SSE 23:31:28 29° E
ERS-2 2.5 23:27:26 10° N 23:31:04 66° WNW 23:34:41 10° SSW
Cosmos 1689 Rocket 2.5 23:32:44 44° SE 23:32:44 44° SE 23:35:06 10° S
Cosmos 2285 Rocket 4.0 23:26:29 10° NNW 23:32:50 61° ENE 23:39:06 10° SSE
PSLV R/B 3.9 23:32:05 28° NE 23:34:00 54° E 23:37:56 10° S
SL-24 R/B 3.6 23:32:18 19° NNE 23:35:02 67° E 23:38:43 10° S
Helios 1A Rocket 3.2 23:36:27 41° ENE 23:36:27 41° ENE 23:40:02 10° N
BREEZE-M DEB (TANK) 3.1 23:34:13 10° W 23:36:12 29° NNW 23:36:12 29° NNW
Cosmos 1470 Rocket 3.7 23:33:26 10° N 23:37:38 47° ENE 23:41:47 10° SSE
Cosmos 864 Rocket 4.4 23:31:23 10° N 23:37:42 70° E 23:43:55 10° SSE
SL-8 Rocket 4.0 23:31:58 10° N 23:38:15 90° E 23:44:31 10° S
Meteor 1-26 Rocket 4.3 23:34:38 10° S 23:40:36 73° E 23:46:38 10° NNE
IRS-1C Rocket 4.0 23:36:35 10° SSE 23:41:51 82° ENE 23:47:10 10° NNW
Cosmos 1515 Rocket 3.6 23:39:02 10° SSE 23:43:14 50° E 23:43:50 46° ENE
BREEZE-M DEB (TANK) 4.2 23:41:59 10° NW 23:42:50 16° NNW 23:42:50 16° NNW
COSMO-SKYMED 1 2.6 23:39:30 10° N 23:43:52 79° WNW 23:48:11 10° SSW
CZ-2D R/B 3.0 23:40:29 10° SSE 23:44:16 78° ENE 23:48:06 10° N
Lacrosse 5 rocket 1.0 23:41:16 10° SW 23:44:56 76° NW 23:45:31 58° NNE
Cosmos 2181 Rocket 4.2 23:39:05 10° S 23:45:31 78° W 23:51:56 10° N
Cosmos 1959 Rocket 4.4 23:40:19 10° N 23:46:43 85° E 23:53:05 10° S
Cosmos 1602 4.1 23:43:11 10° N 23:49:54 18° SSE 23:50:56 10° SSE
Okean-O 2.5 23:44:30 10° SSE 23:48:51 61° ENE 23:53:15 10° N
USA 267 3.4 23:47:07 32° E 23:50:01 55° NNE 23:56:22 10° NW
Cosmos 1821 Rocket 4.3 23:46:28 10° N 23:52:17 40° ENE 23:53:05 38° E
MOS 1 Rocket 3.6 23:51:15 24° NNE 23:54:28 61° E 23:59:49 10° S
